Weather History for Fort Yukon, AK

Change the Weather History Date:

Wednesday, November 27, 2013

  Actual Average Record
Temperature  
Mean Temperature -17 °F -  
Max Temperature -7 °F 0 °F 24 °F (2002)
Min Temperature -27 °F -11 °F -38 °F (2006)
Degree Days  
Heating Degree Days 82    
Moisture  
Dew Point -20 °F    
Average Humidity 74    
Maximum Humidity 84    
Minimum Humidity 63    
Precipitation  
Precipitation 0.00 in - - ()
Sea Level Pressure  
Sea Level Pressure 29.98 in    
Wind  
Wind Speed 0 mph (West)    
Max Wind Speed 5 mph    
Max Gust Speed -    
Visibility 4 miles    
Events Snow    
Averages and records for this station are not official NWS values.
T = Trace of Precipitation, MM = Missing Value Source: NWS Daily Summary

Daily Weather History Graph

Daily Weather History Graph

Search for Another Location

Airport:

Trip Planner

Search our weather history database for the weather conditions in past years. The results will help you decide how hot, cold, wet, or windy it might be!

Date:

Astronomy

Nov. 27, 2013 Rise Set
Actual Time 10:25 AM AKST 2:31 PM AKST
Civil Twilight 9:00 AM AKST 3:56 PM AKST
Nautical Twilight 7:47 AM AKST 5:09 PM AKST
Astronomical Twilight 6:43 AM AKST 6:13 PM AKST
Moon 1:57 AM AKST (11/27) 1:41 PM AKST (11/27)
Length of Visible Light 6h 55m
Length of Day
4h 06m
Waning Crescent, 30% of the Moon is Illuminated
Nov 27
Waning Crescent
Dec 2
New
Dec 9
First Quarter
Dec 17
Full
Dec 25
Last Quarter

Hourly Weather History & Observations

Time (AKST) Temp. Windchill Dew Point Humidity Pressure Visibility Wind Dir Wind Speed Gust Speed Precip Events Conditions
12:16 AM -29.2 °F - - N/A% 30.12 in 3.0 mi Calm Calm - N/A   Overcast
12:36 AM -27.4 °F - - N/A% 30.13 in 5.0 mi Calm Calm - N/A   Overcast
12:56 AM -29.2 °F - - N/A% 30.13 in 4.0 mi Calm Calm - N/A   Overcast
1:16 AM -27.4 °F - - N/A% 30.13 in 0.8 mi Calm Calm - N/A   Overcast
1:56 AM -27.4 °F - - N/A% 30.12 in 5.0 mi Calm Calm - N/A   Overcast
2:16 AM -27.4 °F - - N/A% 30.11 in 1.5 mi Calm Calm - N/A   Overcast
2:36 AM -27.4 °F - - N/A% 30.11 in 0.5 mi Calm Calm - N/A   Overcast
2:56 AM -27.4 °F - - N/A% 30.11 in 1.8 mi Calm Calm - N/A   Overcast
3:16 AM -27.4 °F - - N/A% 30.10 in 1.2 mi Calm Calm - N/A   Overcast
3:36 AM -25.6 °F - - N/A% 30.10 in 4.0 mi Calm Calm - N/A   Overcast
4:16 AM -25.6 °F - - N/A% 30.09 in 0.8 mi Calm Calm - N/A   Overcast
4:36 AM -25.6 °F - - N/A% 30.09 in 1.0 mi Calm Calm - N/A   Overcast
5:16 AM -25.6 °F - - N/A% 30.09 in 3.0 mi Calm Calm - N/A   Overcast
5:56 AM -25.6 °F - - N/A% 30.08 in 4.0 mi Calm Calm - N/A   Overcast
6:16 AM -25.6 °F - - N/A% 30.08 in 5.0 mi Calm Calm - N/A   Overcast
6:36 AM -23.8 °F - -29.2 °F 76% 30.08 in 1.5 mi Calm Calm - N/A   Overcast
6:56 AM -23.8 °F - -29.2 °F 76% 30.07 in 3.0 mi Calm Calm - N/A   Overcast
7:16 AM -23.8 °F - -29.2 °F 76% 30.07 in 3.0 mi Calm Calm - N/A   Overcast
7:36 AM -23.8 °F - - N/A% 30.06 in 3.0 mi Calm Calm - N/A   Overcast
7:56 AM -23.8 °F - -29.2 °F 76% 30.05 in 8.0 mi Calm Calm - N/A   Overcast
8:16 AM -23.8 °F - -29.2 °F 76% 30.05 in 10.0 mi Calm Calm - N/A   Mostly Cloudy
8:32 AM -23.8 °F - -29.2 °F 76% 30.05 in 10.0 mi Calm Calm - N/A   Ice Crystals
8:36 AM -23.8 °F - -29.2 °F 76% 30.05 in 10.0 mi Calm Calm - N/A   Mostly Cloudy
8:56 AM -23.8 °F - -29.2 °F 76% 30.05 in 10.0 mi Calm Calm - N/A   Mostly Cloudy
9:16 AM -23.8 °F - -29.2 °F 76% 30.04 in 9.0 mi Calm Calm - N/A   Mostly Cloudy
9:56 AM -20.2 °F - -27.4 °F 69% 30.04 in 5.0 mi Calm Calm - N/A   Mostly Cloudy
10:28 AM -20.2 °F - -27.4 °F 69% 30.03 in 9.0 mi Calm Calm - N/A   Ice Crystals
10:36 AM -20.2 °F - -27.4 °F 69% 30.02 in 6.0 mi Calm Calm - N/A   Scattered Clouds
11:56 AM -16.6 °F - -23.8 °F 70% 30.00 in 10.0 mi Calm Calm - N/A   Scattered Clouds
12:16 PM -16.6 °F - -22.0 °F 76% 30.00 in 10.0 mi Calm Calm - N/A   Scattered Clouds
12:36 PM -16.6 °F - -20.2 °F 84% 30.00 in 10.0 mi Calm Calm - N/A   Scattered Clouds
12:44 PM -16.6 °F - -20.2 °F 84% 30.00 in 10.0 mi Calm Calm - N/A   Mostly Cloudy
12:56 PM -14.8 °F - -20.2 °F 77% 30.00 in 10.0 mi Calm Calm - N/A   Mostly Cloudy
1:16 PM -14.8 °F - -20.2 °F 77% 29.99 in 10.0 mi Calm Calm - N/A   Mostly Cloudy
1:56 PM -14.8 °F - -18.4 °F 84% 29.97 in 10.0 mi Calm Calm - N/A   Mostly Cloudy
2:36 PM -13.0 °F - -18.4 °F 77% 29.96 in 10.0 mi Calm Calm - N/A   Mostly Cloudy
3:15 PM -13.0 °F - -18.4 °F 77% 29.95 in 3.0 mi Calm Calm - N/A Snow Light Snow
3:16 PM -13.0 °F - -18.4 °F 77% 29.95 in 3.0 mi Calm Calm - N/A   Overcast
3:35 PM -11.2 °F - -18.4 °F 70% 29.94 in 3.0 mi Calm Calm - N/A Snow Light Snow
3:36 PM -11.2 °F - -18.4 °F 70% 29.94 in 3.0 mi Calm Calm - N/A   Overcast
3:41 PM -11.2 °F - -16.6 °F 77% 29.94 in 2.0 mi Calm Calm - N/A Snow Light Snow
3:56 PM -11.2 °F - -16.6 °F 77% 29.93 in 2.5 mi Calm Calm - N/A   Overcast
4:07 PM -11.2 °F - -16.6 °F 77% 29.93 in 4.0 mi Calm Calm - N/A Snow Light Snow
4:16 PM -11.2 °F - -16.6 °F 77% 29.93 in 5.0 mi Calm Calm - N/A   Overcast
4:36 PM -11.2 °F - -16.6 °F 77% 29.92 in 5.0 mi Calm Calm - N/A   Overcast
4:56 PM -11.2 °F - -16.6 °F 77% 29.92 in 5.0 mi Calm Calm - N/A   Overcast
5:16 PM -9.4 °F - -16.6 °F 71% 29.92 in 4.0 mi Calm Calm - N/A   Overcast
5:19 PM -9.4 °F - -16.6 °F 71% 29.91 in 3.0 mi Calm Calm - N/A Snow Light Snow
5:30 PM -9.4 °F - -14.8 °F 77% 29.91 in 2.5 mi Calm Calm - N/A Snow Light Snow
5:36 PM -9.4 °F - -14.8 °F 77% 29.91 in 2.0 mi Calm Calm - N/A   Overcast
5:45 PM -9.4 °F - -16.6 °F 71% 29.91 in 1.8 mi Calm Calm - N/A Snow Light Snow
5:56 PM -9.4 °F - -16.6 °F 71% 29.91 in 1.5 mi Calm Calm - N/A   Overcast
6:16 PM -9.4 °F - -14.8 °F 77% 29.90 in 1.5 mi Calm Calm - N/A   Overcast
6:36 PM -9.4 °F - -14.8 °F 77% 29.89 in 2.0 mi Calm Calm - N/A   Overcast
6:56 PM -9.4 °F - -16.6 °F 71% 29.89 in 2.0 mi Calm Calm - N/A   Overcast
7:36 PM -9.4 °F - -14.8 °F 77% 29.88 in 2.0 mi Calm Calm - N/A   Overcast
7:56 PM -9.4 °F -18.6 °F -14.8 °F 77% 29.87 in 2.0 mi West 3.5 mph - N/A   Overcast
8:16 PM -9.4 °F -20.9 °F -14.8 °F 77% 29.87 in 3.0 mi West 4.6 mph - N/A   Overcast
8:36 PM -9.4 °F -20.9 °F -14.8 °F 77% 29.87 in 1.8 mi West 4.6 mph - N/A   Overcast
8:56 PM -9.4 °F -18.6 °F -14.8 °F 77% 29.87 in 2.5 mi West 3.5 mph - N/A   Overcast
9:16 PM -7.6 °F - -14.8 °F 71% 29.85 in 1.5 mi Calm Calm - N/A   Overcast
9:36 PM -7.6 °F - -14.8 °F 71% 29.85 in 1.8 mi Calm Calm - N/A   Overcast
9:56 PM -7.6 °F -16.5 °F -14.8 °F 71% 29.84 in 2.0 mi West 3.5 mph - N/A   Overcast
10:16 PM -7.6 °F - -14.8 °F 71% 29.84 in 2.0 mi Calm Calm - N/A   Overcast
10:36 PM -7.6 °F -18.8 °F -14.8 °F 71% 29.84 in 1.5 mi West 4.6 mph - N/A   Overcast
10:56 PM -7.6 °F -16.5 °F -14.8 °F 71% 29.83 in 1.5 mi WSW 3.5 mph - N/A   Overcast
11:16 PM -7.6 °F - -14.8 °F 71% 29.83 in 1.5 mi Calm Calm - N/A   Overcast
11:36 PM -7.6 °F -16.5 °F -14.8 °F 71% 29.83 in 1.5 mi WSW 3.5 mph - N/A   Overcast
11:56 PM -9.4 °F - -14.8 °F 77% 29.82 in 1.5 mi Calm Calm - N/A   Overcast